Regional Weather Roundup
Issued by NWS

Home | Current Version | Previous Version | Graphics & Text | Print | Product List | Glossary On
Versions: 1 2 3 4 5 6 7 8 9 10 11 12 13 14 15 16 17 18 19 20 21 22 23 24 25 26 27 28 29 30 31 32 33 34 35 36 37 38 39 40 41 42 43 44 45 46 47 48 49 50
000
ASUS43 KBIS 221410
RWRND
NORTH DAKOTA REGIONAL WEATHER ROUNDUP
NATIONAL WEATHER SERVICE EASTERN NORTH DAKOTA/GRAND FORKS ND
900 AM CDT SUN APR 22 2018

  NOTE: "FAIR" INDICATES FEW OR NO CLOUDS BELOW 12,000 FEET WITH NO
  SIGNIFICANT WEATHER AND/OR OBSTRUCTIONS TO VISIBILITY.

NDZ001>003-009>011-017-221500-
...NORTHWEST NORTH DAKOTA...

CITY           SKY/WX    TMP DP  RH WIND       PRES   REMARKS
WILLISTON      FAIR      47  30  51 CALM      30.13R
MINOT          FAIR      48  37  65 SW14      30.10R
MINOT AFB      FAIR      48  38  67 W10       30.09R
$$

NDZ018>021-031>035-040>046-221500-
...SOUTHWEST NORTH DAKOTA...

CITY           SKY/WX    TMP DP  RH WIND       PRES   REMARKS
BISMARCK       FAIR      45  36  70 S12       30.18S
DICKINSON      FAIR      45  37  73 W3        30.11S
GARRISON         N/A     41  37  86 SW9       30.13R
HETTINGER      FAIR      40  36  86 SW5       30.16R
$$

NDZ004>008-012>016-024-026-027-054-221500-
...NORTHEAST NORTH DAKOTA...

CITY           SKY/WX    TMP DP  RH WIND       PRES   REMARKS
GRAND FORKS    FAIR      41  38  89 S14       30.23S
GRAND FORKS AF FAIR      44  37  75 S14       30.21F
DEVILS LAKE    FAIR      43  33  68 S15       30.17R
$$

NDZ022-023-025-028>030-036>039-047>053-221500-
...SOUTHEAST NORTH DAKOTA...

CITY           SKY/WX    TMP DP  RH WIND       PRES   REMARKS
JAMESTOWN      FAIR      42  36  79 S14       30.21F
FARGO          FAIR      46  34  62 S15       30.28R
WAHPETON       FAIR      41  34  75 SE8       30.30R
$$




USA.gov is the U.S. government's official web portal to all federal, state and local government web resources and services.